Yap International Airport
PTYA : now visible

Airfield :











YOU CAN JOIN US ON...

 
LOGIN :

Register | Disclaimer

   EN    FR    IT 

 









Legend :    VFR   Marginal VFR   IFR   Intensive IFR   Very Intensive IFR
Visi :
Ceiling :
>= 8 km
>= 3000ft
5 to 8 km
1000 to 3000 ft
1500m to 5 km
500 to 1000 ft
800 to 1500m
200 to 500 ft
< 800m
< 200 ft
Symbols :   Thunderstorms  Fog  Heavy snow  Heavy precipitations  Wind > 20 kt






- Airport Elevation : 91 ft
- IATA code : YAP


PTYA - Yap International

CURRENT METAR :
  • 311653Z VRB05KT 12SM SCT016 BKN130 OVC300 27/24 A2979 RMK SLP090 T02650240

EXPIRED METARs :
  • 311553Z VRB05KT 12SM SCT016 BKN130 OVC300 27/24 A2981 RMK SLP095 T02680238

TAF PTYA
Valid from the 31 at 18:00 until the 01 at 18:00 UTC


311720Z 3118/0118 23010KT P6SM VCSH SCT017 BKN120
KZOA FIR / Oceania



MET'MAP, your aeronautical weather chart ! - Copyright ORBIFLY December 2007 - Disclaimer

ORBIFLY MET'MAP TEAM :

Programming & Development : Alexandra Zaïnal
Concept & original design : Baudouin d'Aumeries
Assistance for programming : Marc-Olivier Méhu
Technical & hardware support : Manuel Goepfert

Contact : metmap@orbifly.com




SOURCES & CREDITS :

   NOAA       Earth
Advisory